| time (UTC) | temp F | wind direction | speed knots | gust knots | rain 1hr in | rain 24hr in | rain mn in | humidity % | barometer mb |
| 20260507080001 | 51 | 269 | 0.0 | 3.5 | 0.00 | 0.07 | 0.64 | 98 | 1013.4 |
| 20260507074500 | 51 | 155 | 2.6 | 3.5 | 0.00 | 0.07 | 0.64 | 99 | 1013.3 |
| 20260507073001 | 51 | 273 | 0.9 | 3.5 | 0.00 | 0.07 | 0.64 | 99 | 1013.4 |
| 20260507071500 | 50 | 220 | 1.7 | 2.6 | 0.00 | 0.07 | 0.64 | 99 | 1013.1 |
| 20260507070000 | 51 | 171 | 0.9 | 2.6 | 0.00 | 0.07 | 0.64 | 99 | 1013.2 |
| 20260507064500 | 50 | 306 | 0.0 | 3.5 | 0.00 | 0.07 | 0.64 | 99 | 1013.1 |
| 20260507063000 | 50 | 345 | 0.0 | 2.6 | 0.00 | 0.07 | 0.64 | 99 | 1013.0 |
| 20260507061501 | 50 | 211 | 1.7 | 4.3 | 0.00 | 0.07 | 0.64 | 99 | 1013.0 |
| 20260507060001 | 51 | 282 | 0.9 | 4.3 | 0.00 | 0.07 | 0.64 | 99 | 1012.7 |
| 20260507054500 | 51 | 254 | 0.0 | 2.6 | 0.00 | 0.07 | 0.64 | 99 | 1012.6 |
| 20260507053000 | 51 | 202 | 1.7 | 2.6 | 0.00 | 0.07 | 0.64 | 99 | 1012.2 |
| 20260507051501 | 51 | 174 | 1.7 | 2.6 | 0.00 | 0.07 | 0.64 | 99 | 1012.1 |
| 20260507050000 | 51 | 223 | 0.9 | 2.6 | 0.00 | 0.07 | 0.64 | 98 | 1011.7 |
| 20260507044501 | 50 | 142 | 1.7 | 3.5 | 0.00 | 0.07 | 0.64 | 98 | 1011.8 |
| 20260507043000 | 51 | 192 | 2.6 | 3.5 | 0.00 | 0.07 | 0.64 | 98 | 1011.7 |
| 20260507041500 | 51 | 224 | 1.7 | 5.2 | 0.00 | 0.07 | 0.64 | 97 | 1011.5 |
| 20260507040001 | 51 | 285 | 1.7 | 3.5 | 0.00 | 0.07 | 0.64 | 97 | 1011.4 |
| 20260507034500 | 51 | 204 | 1.7 | 7.0 | 0.00 | 0.07 | 0.64 | 97 | 1011.5 |
| 20260507033000 | 51 | 185 | 2.6 | 3.5 | 0.00 | 0.07 | 0.64 | 97 | 1011.4 |
| 20260507031501 | 51 | 215 | 6.1 | 7.8 | 0.00 | 0.07 | 0.64 | 96 | 1011.3 |
| 20260507030001 | 51 | 188 | 3.5 | 7.8 | 0.00 | 0.07 | 0.64 | 97 | 1011.2 |
| 20260507024501 | 51 | 236 | 1.7 | 5.2 | 0.00 | 0.07 | 0.64 | 96 | 1011.4 |
| 20260507023001 | 51 | 187 | 2.6 | 5.2 | 0.00 | 0.07 | 0.64 | 96 | 1011.3 |
| 20260507021501 | 51 | 182 | 3.5 | 6.1 | 0.00 | 0.07 | 0.64 | 98 | 1011.4 |
| 20260507020000 | 52 | 169 | 4.3 | 4.3 | 0.00 | 0.07 | 0.64 | 97 | 1011.3 |
| 20260507014501 | 52 | 183 | 2.6 | 5.2 | 0.00 | 0.07 | 0.64 | 96 | 1011.0 |
| 20260507013000 | 52 | 170 | 2.6 | 2.6 | 0.01 | 0.07 | 0.64 | 96 | 1011.0 |
| 20260507011500 | 52 | 238 | 2.6 | 6.1 | 0.01 | 0.07 | 0.64 | 95 | 1010.9 |
| 20260507010001 | 52 | 161 | 1.7 | 3.5 | 0.06 | 0.07 | 0.64 | 95 | 1010.8 |
| 20260507004500 | 52 | 96 | 5.2 | 6.1 | 0.07 | 0.07 | 0.64 | 96 | 1010.8 |
| 20260507003000 | 52 | 68 | 4.3 | 4.3 | 0.07 | 0.07 | 0.63 | 96 | 1010.8 |
| 20260507001501 | 52 | 119 | 1.7 | 3.5 | 0.06 | 0.06 | 0.63 | 97 | 1010.8 |
| 20260507000001 | 52 | 177 | 2.6 | 6.1 | 0.00 | 0.00 | 0.57 | 97 | 1011.1 |
| 20260506234501 | 52 | 148 | 0.9 | 0.9 | 0.00 | 0.00 | 0.57 | 96 | 1011.0 |
| 20260506233000 | 52 | 209 | 0.9 | 1.7 | 0.00 | 0.00 | 0.57 | 96 | 1010.8 |
| 20260506231500 | 53 | 213 | 1.7 | 3.5 | 0.00 | 0.00 | 0.57 | 94 | 1010.6 |
| 20260506230000 | 54 | 97 | 1.7 | 3.5 | 0.00 | 0.00 | 0.57 | 89 | 1010.7 |
| 20260506224500 | 53 | 83 | 4.3 | 8.7 | 0.00 | 0.00 | 0.57 | 90 | 1010.4 |
| 20260506223001 | 54 | 103 | 1.7 | 7.0 | 0.00 | 0.00 | 0.57 | 89 | 1010.5 |
| 20260506221501 | 54 | 189 | 2.6 | 4.3 | 0.01 | 0.00 | 0.57 | 88 | 1010.3 |
| 20260506220001 | 54 | 218 | 7.0 | 10.4 | 0.01 | 0.13 | 0.57 | 89 | 1010.3 |
| 20260506214501 | 54 | 315 | 1.7 | 2.6 | 0.00 | 0.13 | 0.56 | 88 | 1010.1 |
| 20260506213001 | 54 | 183 | 3.5 | 6.1 | 0.00 | 0.13 | 0.56 | 88 | 1009.9 |
| 20260506211500 | 54 | 129 | 3.5 | 5.2 | 0.00 | 0.13 | 0.56 | 89 | 1009.9 |
| 20260506210001 | 54 | 153 | 4.3 | 5.2 | 0.00 | 0.13 | 0.56 | 90 | 1010.1 |
| 20260506204500 | 54 | 112 | 4.3 | 11.3 | 0.00 | 0.13 | 0.56 | 88 | 1009.5 |
| 20260506203002 | 54 | 112 | 5.2 | 11.3 | 0.00 | 0.13 | 0.56 | 86 | 1009.0 |
| 20260506201500 | 54 | 86 | 13.0 | 14.8 | 0.00 | 0.13 | 0.56 | 88 | 1008.8 |
| 20260506200001 | 55 | 92 | 7.0 | 14.8 | 0.05 | 0.13 | 0.56 | 86 | 1008.6 |
| 20260506194501 | 54 | 102 | 6.1 | 13.0 | 0.05 | 0.13 | 0.56 | 87 | 1008.2 |
| 20260506193002 | 54 | 61 | 11.3 | 11.3 | 0.05 | 0.13 | 0.56 | 89 | 1008.3 |
| 20260506191500 | 53 | 116 | 3.5 | 7.8 | 0.05 | 0.13 | 0.56 | 90 | 1007.7 |
| 20260506190000 | 56 | 126 | 7.0 | 7.8 | 0.00 | 0.08 | 0.51 | 81 | 1007.8 |
| 20260506184501 | 57 | 168 | 3.5 | 10.4 | 0.00 | 0.07 | 0.51 | 79 | 1007.4 |
| 20260506183000 | 57 | 32 | 3.5 | 10.4 | 0.00 | 0.07 | 0.51 | 79 | 1007.2 |
| 20260506181501 | 58 | 121 | 4.3 | 8.7 | 0.00 | 0.07 | 0.51 | 80 | 1006.8 |
| 20260506180001 | 58 | 129 | 4.3 | 12.2 | 0.00 | 0.07 | 0.51 | 81 | 1006.6 |
| 20260506173000 | 58 | 68 | 5.2 | 13.9 | 0.00 | 0.07 | 0.51 | 81 | 1006.4 |
| 20260506171501 | 58 | 123 | 6.1 | 16.5 | 0.00 | 0.07 | 0.51 | 80 | 1006.0 |
| 20260506170001 | 58 | 100 | 8.7 | 15.6 | 0.00 | 0.07 | 0.51 | 80 | 1005.9 |
| 20260506164501 | 59 | 68 | 7.8 | 16.5 | 0.00 | 0.07 | 0.51 | 77 | 1006.0 |
| 20260506163000 | 60 | 84 | 8.7 | 13.9 | 0.04 | 0.07 | 0.51 | 73 | 1005.8 |
| 20260506161500 | 61 | 91 | 7.0 | 13.9 | 0.04 | 0.07 | 0.51 | 72 | 1005.9 |
| 20260506160001 | 59 | 97 | 5.2 | 13.0 | 0.04 | 0.07 | 0.51 | 77 | 1006.1 |
| 20260506154500 | 60 | 105 | 2.6 | 6.1 | 0.04 | 0.07 | 0.51 | 78 | 1006.4 |
| 20260506153000 | 61 | 188 | 1.7 | 4.3 | 0.00 | 0.04 | 0.47 | 70 | 1006.6 |
| 20260506151500 | 62 | 75 | 5.2 | 10.4 | 0.00 | 0.04 | 0.47 | 68 | 1006.3 |
| 20260506150001 | 63 | 80 | 6.1 | 7.0 | 0.00 | 0.04 | 0.47 | 67 | 1006.3 |
| 20260506144501 | 64 | 76 | 3.5 | 10.4 | 0.00 | 0.04 | 0.47 | 63 | 1006.1 |
| 20260506143000 | 65 | 86 | 7.8 | 13.9 | 0.00 | 0.04 | 0.47 | 60 | 1005.7 |
| 20260506141501 | 65 | 76 | 7.8 | 13.0 | 0.00 | 0.04 | 0.47 | 61 | 1005.8 |
| 20260506140000 | 65 | 104 | 7.0 | 13.9 | 0.00 | 0.04 | 0.47 | 62 | 1006.3 |
| 20260506134500 | 65 | 92 | 8.7 | 9.6 | 0.00 | 0.04 | 0.47 | 62 | 1006.3 |
| 20260506133001 | 65 | 103 | 6.1 | 13.0 | 0.00 | 0.04 | 0.47 | 63 | 1006.6 |
| 20260506131500 | 65 | 108 | 6.1 | 7.0 | 0.00 | 0.04 | 0.47 | 65 | 1006.5 |
| 20260506130001 | 65 | 142 | 4.3 | 13.9 | 0.00 | 0.04 | 0.47 | 65 | 1006.7 |
| 20260506124500 | 65 | 97 | 7.8 | 12.2 | 0.00 | 0.04 | 0.47 | 65 | 1006.6 |
| 20260506123000 | 65 | 69 | 5.2 | 10.4 | 0.00 | 0.04 | 0.47 | 64 | 1006.6 |
| 20260506121500 | 67 | 84 | 7.0 | 7.8 | 0.00 | 0.04 | 0.47 | 62 | 1006.7 |
| 20260506120000 | 66 | 125 | 3.5 | 9.6 | 0.00 | 0.04 | 0.47 | 62 | 1006.8 |
| 20260506114501 | 64 | 107 | 4.3 | 6.1 | 0.00 | 0.04 | 0.47 | 69 | 1006.8 |
| 20260506113001 | 67 | 113 | 2.6 | 5.2 | 0.00 | 0.04 | 0.47 | 62 | 1006.9 |
| 20260506111500 | 65 | 123 | 2.6 | 3.5 | 0.00 | 0.04 | 0.47 | 64 | 1007.1 |
| 20260506110000 | 62 | 104 | 2.6 | 9.6 | 0.00 | 0.04 | 0.47 | 64 | 1007.2 |
| 20260506104500 | 65 | 93 | 5.2 | 9.6 | 0.00 | 0.04 | 0.47 | 66 | 1007.3 |
| 20260506103000 | 63 | 167 | 0.9 | 6.1 | 0.00 | 0.04 | 0.47 | 71 | 1007.3 |
| 20260506101500 | 62 | 108 | 1.7 | 7.8 | 0.00 | 0.04 | 0.47 | 74 | 1007.5 |
| 20260506100000 | 61 | 99 | 3.5 | 5.2 | 0.00 | 0.04 | 0.47 | 78 | 1007.7 |
| 20260506094501 | 58 | 142 | 3.5 | 5.2 | 0.00 | 0.04 | 0.47 | 80 | 1007.8 |
| 20260506093000 | 58 | 121 | 1.7 | 2.6 | 0.00 | 0.04 | 0.47 | 84 | 1007.8 |
| 20260506091500 | 59 | 192 | 1.7 | 3.5 | 0.00 | 0.04 | 0.47 | 82 | 1007.7 |
| 20260506090001 | 54 | 354 | 0.9 | 1.7 | 0.00 | 0.04 | 0.47 | 93 | 1007.8 |
| 20260506084501 | 54 | 185 | 1.7 | 3.5 | 0.00 | 0.04 | 0.47 | 94 | 1007.8 |
| 20260506083000 | 53 | 3 | 0.0 | 2.6 | 0.00 | 0.04 | 0.47 | 97 | 1007.9 |
| 20260506081501 | 53 | 310 | 1.7 | 4.3 | 0.00 | 0.04 | 0.47 | 96 | 1008.0 |